Location: Palomar Mountain Lodge
(33.3110°N, 116.8495°W)
Time: 12:45:48
(UTC-07:00)

Cosmos 371 Rocket - Pass Details

Date: 12 July 2018
Orbit: 684 x 699 km, 74.0° (Epoch: 15 July)

Event Time Altitude Azimuth Distance (km) Brightness Sun altitude
Rises 20:34:59 0° 346° (NNW) 3,080 7.4 -7.4°
Reaches altitude 10° 20:37:19 10° 350° (N) 2,160 6.5 -7.8°
Maximum altitude 20:42:10 65° 72° (ENE) 766 3.4 -8.7°
Drops below altitude 10° 20:46:59 10° 154° (SSE) 2,149 5.3 -9.5°
Enters shadow 20:47:24 - 155° (SSE) 2,316 5.5 -9.6°
